VOE55G LICA-LICD

Flight info

Callsign VOE55G
Flight time N/A
Altitude 19000
Route CDC L137 NELDA/N0439F350 DCT DIRKA/N0430F290 N982 GZO/N0431F300 P624 LUZOT
Aircraft A320/M-SDE3FGHIRWY/LB1

Departure

Time 2026-04-17 11:01
Airport Lamezia Terme Sant'Eufemia International Airport (LICA)

Arrival

Time N/A
Airport Lampedusa Airport (LICD)
Time Latitude Longitude Altitude Speed Heading
2026-04-17 11:01 38.72442 16.09927 10505 ft 303 kts 187°
2026-04-17 11:01 38.70301 16.09559 10925 ft 320 kts 187°
2026-04-17 11:01 38.68064 16.09174 11261 ft 337 kts 187°
2026-04-17 11:02 38.65674 16.08763 11833 ft 346 kts 187°
2026-04-17 11:02 38.63285 16.08351 12534 ft 349 kts 187°
2026-04-17 11:02 38.60859 16.07933 13230 ft 352 kts 187°
2026-04-17 11:02 38.58432 16.07515 13901 ft 356 kts 187°
2026-04-17 11:03 38.55937 16.07087 14566 ft 359 kts 187°
2026-04-17 11:03 38.53498 16.06668 15207 ft 362 kts 187°
2026-04-17 11:03 38.51026 16.06244 15847 ft 365 kts 187°
2026-04-17 11:03 38.48492 16.05783 16458 ft 368 kts 191°
2026-04-17 11:04 38.45983 16.04746 17052 ft 371 kts 205°
2026-04-17 11:04 38.43785 16.02997 17654 ft 373 kts 218°
2026-04-17 11:04 38.41781 16.00892 18246 ft 375 kts 220°
2026-04-17 11:04 38.39978 15.98935 18746 ft 378 kts 220°
2026-04-17 11:05 38.37905 15.96683 19315 ft 382 kts 220°
2026-04-17 11:05 38.35863 15.94480 19839 ft 385 kts 220°
2026-04-17 11:05 38.33828 15.92299 20344 ft 388 kts 220°
2026-04-17 11:05 38.31718 15.90045 20872 ft 391 kts 220°
2026-04-17 11:06 38.29625 15.87816 21369 ft 394 kts 220°
2026-04-17 11:06 38.27522 15.85581 21876 ft 397 kts 220°
2026-04-17 11:06 38.25396 15.83323 22351 ft 400 kts 220°
2026-04-17 11:06 38.23249 15.81046 22812 ft 403 kts 220°
2026-04-17 11:07 38.21077 15.78745 23280 ft 406 kts 220°
2026-04-17 11:07 38.18926 15.76467 23733 ft 408 kts 220°
2026-04-17 11:07 38.16734 15.74148 24184 ft 411 kts 220°
2026-04-17 11:07 38.14525 15.71811 24658 ft 413 kts 220°
2026-04-17 11:08 38.12580 15.69756 25059 ft 415 kts 220°
2026-04-17 11:08 38.10336 15.67387 25506 ft 417 kts 220°
2026-04-17 11:08 38.08139 15.65070 25922 ft 419 kts 220°
2026-04-17 11:08 38.05832 15.62598 26351 ft 421 kts 221°
2026-04-17 11:09 38.03597 15.60147 26769 ft 423 kts 221°
2026-04-17 11:09 38.01390 15.57719 27154 ft 425 kts 221°
2026-04-17 11:09 37.99146 15.55252 27536 ft 428 kts 221°
2026-04-17 11:10 37.94608 15.50280 28244 ft 432 kts 221°
2026-04-17 11:10 37.92335 15.47793 28582 ft 435 kts 221°
2026-04-17 11:10 37.90022 15.45266 28917 ft 437 kts 221°
2026-04-17 11:10 37.87714 15.42748 29314 ft 437 kts 221°
2026-04-17 11:11 37.85428 15.40252 29716 ft 437 kts 221°
2026-04-17 11:11 37.83130 15.37746 30010 ft 439 kts 221°
2026-04-17 11:11 37.78475 15.32681 30018 ft 440 kts 220°
2026-04-17 11:12 37.73812 15.27609 30020 ft 440 kts 221°
2026-04-17 11:12 37.69184 15.22566 30024 ft 441 kts 221°
2026-04-17 11:13 37.64539 15.17508 30042 ft 442 kts 221°
2026-04-17 11:13 37.59897 15.12462 30049 ft 441 kts 221°
2026-04-17 11:14 37.55285 15.07456 30044 ft 441 kts 221°
2026-04-17 11:14 37.50827 15.02623 30037 ft 441 kts 221°
2026-04-17 11:15 37.46365 14.97798 30027 ft 441 kts 220°
2026-04-17 11:15 37.41539 14.92985 30026 ft 442 kts 218°
2026-04-17 11:16 37.36719 14.88267 30029 ft 442 kts 218°
2026-04-17 11:16 37.31843 14.83496 30034 ft 443 kts 218°
2026-04-17 11:17 37.26976 14.78740 30039 ft 443 kts 218°
2026-04-17 11:17 37.22121 14.74005 30044 ft 443 kts 218°
2026-04-17 11:18 37.17231 14.69257 30044 ft 444 kts 218°
2026-04-17 11:18 37.12371 14.64538 30043 ft 444 kts 218°
2026-04-17 11:19 37.07478 14.59794 30034 ft 445 kts 218°
2026-04-17 11:19 37.02597 14.55067 30033 ft 445 kts 218°
2026-04-17 11:20 36.97772 14.50400 30025 ft 445 kts 218°
2026-04-17 11:20 36.92891 14.45684 30020 ft 445 kts 218°
2026-04-17 11:21 36.87954 14.40926 30017 ft 445 kts 218°
2026-04-17 11:21 36.83254 14.35940 30011 ft 445 kts 222°
2026-04-17 11:22 36.78624 14.30738 30007 ft 446 kts 222°
2026-04-17 11:22 36.74053 14.25604 30011 ft 446 kts 222°
2026-04-17 11:23 36.70088 14.21159 30011 ft 446 kts 222°
2026-04-17 11:23 36.65654 14.16197 29964 ft 444 kts 222°
2026-04-17 11:24 36.63604 14.13906 29466 ft 444 kts 222°
2026-04-17 11:24 36.63427 14.13709 29392 ft 444 kts 222°
2026-04-17 11:24 36.62124 14.12253 28740 ft 450 kts 222°
2026-04-17 11:24 36.60769 14.10741 28019 ft 456 kts 222°